Location: Newark
(12.4436°N, 0.6167°W)
Time: 04:18:08
(UTC+00:00)

Vanguard 2 - Pass Details

Date: 15 December 2019
Orbit: 553 x 2938 km, 32.9° (Epoch: 18 January)

Event Time Altitude Azimuth Distance (km) Brightness Sun altitude
Rises 02:58:03 0° 296° (WNW) 6,076 - -45.8°
Reaches altitude 10° 03:02:23 10° 305° (NW) 5,323 - -44.9°
Exits shadow 03:15:33 36° 357° (N) 3,976 10.8 -41.8°
Maximum altitude 03:17:23 37° 8° (N) 3,960 10.9 -41.4°
Drops below altitude 10° 03:32:43 10° 70° (ENE) 5,454 12.3 -37.9°
Sets 03:37:12 0° 78° (ENE) 6,236 12.9 -36.9°
